• In Hungary
  • List of Countries
  • For 7 days
  • Water Temperature
  • Satellite Maps
  • Weather Map
  • News
  • Weather Widgets
  • user-avatar
    Login

    Hourly Weather Tiwi

    Today, 20 November, Monday

    Time Temperature Precipitation Wind Pressure Humidity
    00:00 +23°C° 0 mm 1 mps 756 mmHg 44%
    01:00 +23°C° 0 mm 1 mps 756 mmHg 44%
    02:00 +21°C° 0 mm 2 mps 756 mmHg 46%
    03:00 +21°C° 0 mm 2 mps 756 mmHg 47%
    04:00 +20°C° 0 mm 2 mps 756 mmHg 49%
    05:00 +20°C° 0 mm 2 mps 756 mmHg 50%
    06:00 +20°C° 0 mm 2 mps 756 mmHg 50%
    07:00 +20°C° 0 mm 2 mps 757 mmHg 51%
    08:00 +24°C° 0 mm 2 mps 757 mmHg 42%
    09:00 +26°C° 0 mm 2 mps 757 mmHg 33%
    10:00 +29°C° 0 mm 2 mps 757 mmHg 24%
    11:00 +30°C° 0 mm 2 mps 757 mmHg 22%
    12:00 +30°C° 0 mm 2 mps 756 mmHg 20%
    13:00 +31°C° 0 mm 2 mps 756 mmHg 19%
    14:00 +31°C° 0 mm 2 mps 755 mmHg 19%
    15:00 +30°C° 0 mm 2 mps 755 mmHg 20%
    16:00 +30°C° 0 mm 3 mps 755 mmHg 21%
    17:00 +29°C° 0 mm 2 mps 755 mmHg 26%
    18:00 +27°C° 0 mm 2 mps 755 mmHg 31%
    19:00 +26°C° 0 mm 2 mps 755 mmHg 35%
    20:00 +25°C° 0 mm 2 mps 756 mmHg 38%
    21:00 +24°C° 0 mm 2 mps 756 mmHg 41%
    22:00 +24°C° 0 mm 2 mps 756 mmHg 45%
    23:00 +23°C° 0 mm 2 mps 755 mmHg 47%

    Tomorrow, 21 November, Tuesday

    Time Temperature Precipitation Wind Pressure Humidity
    00:00 +23°C° 0 mm 2 mps 755 mmHg 49%
    01:00 +21°C° 0 mm 2 mps 755 mmHg 52%
    02:00 +21°C° 0 mm 2 mps 755 mmHg 53%
    03:00 +20°C° 0 mm 2 mps 755 mmHg 55%
    04:00 +20°C° 0 mm 2 mps 754 mmHg 56%
    05:00 +20°C° 0 mm 2 mps 755 mmHg 56%
    06:00 +20°C° 0 mm 2 mps 755 mmHg 56%
    07:00 +20°C° 0 mm 2 mps 755 mmHg 56%
    08:00 +24°C° 0 mm 2 mps 755 mmHg 47%
    09:00 +26°C° 0 mm 2 mps 756 mmHg 38%
    10:00 +29°C° 0 mm 2 mps 756 mmHg 30%
    11:00 +30°C° 0 mm 3 mps 755 mmHg 27%
    12:00 +30°C° 0 mm 3 mps 755 mmHg 25%
    13:00 +31°C° 0 mm 3 mps 754 mmHg 23%
    14:00 +31°C° 0 mm 3 mps 754 mmHg 24%
    15:00 +30°C° 0 mm 3 mps 754 mmHg 24%
    16:00 +30°C° 0 mm 3 mps 753 mmHg 25%
    17:00 +28°C° 0 mm 2 mps 753 mmHg 32%
    18:00 +27°C° 0 mm 2 mps 754 mmHg 38%
    19:00 +25°C° 0 mm 2 mps 754 mmHg 45%
    20:00 +25°C° 0 mm 2 mps 754 mmHg 48%
    21:00 +25°C° 0 mm 2 mps 754 mmHg 52%
    22:00 +24°C° 0 mm 2 mps 754 mmHg 55%
    23:00 +24°C° 0 mm 2 mps 754 mmHg 57%

    Day after tomorrow, 22 November, Wednesday

    Time Temperature Precipitation Wind Pressure Humidity
    00:00 +24°C° 0 mm 2 mps 753 mmHg 60%
    01:00 +23°C° 0 mm 2 mps 753 mmHg 62%
    02:00 +23°C° 0 mm 2 mps 753 mmHg 63%
    03:00 +23°C° 0 mm 2 mps 752 mmHg 64%
    04:00 +23°C° 0 mm 2 mps 752 mmHg 66%
    05:00 +23°C° 0 mm 2 mps 753 mmHg 66%
    06:00 +21°C° 0 mm 2 mps 753 mmHg 67%
    07:00 +21°C° 0 mm 3 mps 753 mmHg 68%
    08:00 +24°C° 0 mm 2 mps 754 mmHg 56%
    09:00 +26°C° 0 mm 2 mps 754 mmHg 45%
    10:00 +28°C° 0 mm 2 mps 754 mmHg 33%
    11:00 +29°C° 0 mm 2 mps 754 mmHg 30%
    12:00 +30°C° 0 mm 2 mps 754 mmHg 26%
    13:00 +31°C° 0 mm 2 mps 753 mmHg 22%
    14:00 +31°C° 0 mm 2 mps 753 mmHg 22%
    15:00 +30°C° 0 mm 2 mps 753 mmHg 22%
    16:00 +30°C° 0 mm 2 mps 752 mmHg 22%
    17:00 +29°C° 0 mm 2 mps 753 mmHg 26%
    18:00 +27°C° 0 mm 2 mps 753 mmHg 31%
    19:00 +25°C° 0 mm 2 mps 753 mmHg 36%
    20:00 +25°C° 0 mm 2 mps 753 mmHg 41%
    21:00 +24°C° 0 mm 2 mps 753 mmHg 47%
    22:00 +24°C° 0 mm 1 mps 753 mmHg 52%
    23:00 +23°C° 0 mm 1 mps 753 mmHg 56%

    23 November, Thursday

    Time Temperature Precipitation Wind Pressure Humidity
    00:00 +23°C° 0 mm 1 mps 753 mmHg 61%
    01:00 +23°C° 0 mm 1 mps 752 mmHg 65%
    02:00 +22°C° 0 mm 1 mps 752 mmHg 70%
    03:00 +22°C° 0 mm 1 mps 752 mmHg 74%
    04:00 +21°C° 0 mm 1 mps 752 mmHg 79%
    05:00 +21°C° 0 mm 1 mps 752 mmHg 77%
    06:00 +21°C° 0 mm 1 mps 752 mmHg 74%
    07:00 +21°C° 0 mm 1 mps 753 mmHg 72%
    08:00 +24°C° 0 mm 1 mps 753 mmHg 59%
    09:00 +27°C° 0 mm 1 mps 753 mmHg 46%
    10:00 +29°C° 0 mm 1 mps 754 mmHg 32%
    11:00 +30°C° 0 mm 1 mps 753 mmHg 29%
    12:00 +31°C° 0 mm 2 mps 753 mmHg 25%
    13:00 +32°C° 0 mm 2 mps 752 mmHg 21%
    14:00 +31°C° 0 mm 2 mps 752 mmHg 22%
    15:00 +31°C° 0 mm 2 mps 751 mmHg 23%
    16:00 +31°C° 0 mm 3 mps 751 mmHg 24%
    17:00 +29°C° 0 mm 3 mps 752 mmHg 29%
    18:00 +27°C° 0 mm 2 mps 752 mmHg 35%
    19:00 +25°C° 0 mm 2 mps 752 mmHg 40%
    20:00 +25°C° 0 mm 2 mps 752 mmHg 41%
    21:00 +24°C° 0 mm 2 mps 753 mmHg 42%
    22:00 +22°C° 0 mm 3 mps 753 mmHg 43%
    23:00 +22°C° 0 mm 3 mps 753 mmHg 44%

    24 November, Friday

    Time Temperature Precipitation Wind Pressure Humidity
    00:00 +22°C° 0 mm 3 mps 752 mmHg 44%
    01:00 +21°C° 0 mm 3 mps 752 mmHg 44%
    02:00 +21°C° 0 mm 3 mps 752 mmHg 45%
    03:00 +21°C° 0 mm 3 mps 752 mmHg 45%
    04:00 +20°C° 0 mm 3 mps 752 mmHg 45%
    05:00 +21°C° 0 mm 2 mps 752 mmHg 44%
    06:00 +21°C° 0 mm 2 mps 753 mmHg 42%
    07:00 +21°C° 0 mm 2 mps 753 mmHg 40%
    08:00 +24°C° 0 mm 2 mps 754 mmHg 34%
    09:00 +27°C° 0 mm 2 mps 754 mmHg 28%
    10:00 +30°C° 0 mm 2 mps 754 mmHg 22%
    11:00 +30°C° 0 mm 2 mps 754 mmHg 22%
    12:00 +31°C° 0 mm 2 mps 753 mmHg 23%
    13:00 +32°C° 0 mm 2 mps 753 mmHg 24%
    14:00 +31°C° 0.1 mm 2 mps 753 mmHg 28%
    15:00 +31°C° 0.1 mm 3 mps 753 mmHg 31%
    16:00 +30°C° 0.1 mm 3 mps 752 mmHg 35%
    17:00 +29°C° 0 mm 3 mps 753 mmHg 42%
    18:00 +27°C° 0 mm 3 mps 753 mmHg 48%
    19:00 +26°C° 0 mm 4 mps 754 mmHg 55%
    20:00 +25°C° 0 mm 4 mps 754 mmHg 56%
    21:00 +23°C° 0 mm 4 mps 754 mmHg 57%
    22:00 +23°C° 0 mm 4 mps 754 mmHg 57%
    23:00 +23°C° 0 mm 4 mps 754 mmHg 57%

    25 November, Saturday

    Time Temperature Precipitation Wind Pressure Humidity
    00:00 +22°C° 0 mm 4 mps 754 mmHg 57%
    01:00 +22°C° 0 mm 4 mps 753 mmHg 57%
    02:00 +22°C° 0 mm 4 mps 753 mmHg 61%
    03:00 +22°C° 0 mm 4 mps 753 mmHg 65%
    04:00 +21°C° 0 mm 4 mps 753 mmHg 69%
    05:00 +21°C° 0 mm 4 mps 754 mmHg 71%
    06:00 +21°C° 0 mm 4 mps 754 mmHg 73%
    07:00 +21°C° 0 mm 4 mps 754 mmHg 75%
    08:00 +23°C° 0 mm 4 mps 755 mmHg 67%
    09:00 +26°C° 0 mm 4 mps 755 mmHg 58%
    10:00 +29°C° 0 mm 4 mps 755 mmHg 50%
    11:00 +30°C° 0 mm 4 mps 755 mmHg 45%
    12:00 +32°C° 0 mm 5 mps 754 mmHg 41%
    13:00 +32°C° 0 mm 5 mps 753 mmHg 36%
    14:00 +32°C° 0 mm 5 mps 753 mmHg 37%
    15:00 +30°C° 0 mm 5 mps 753 mmHg 38%
    16:00 +30°C° 0 mm 5 mps 753 mmHg 38%
    17:00 +29°C° 0 mm 5 mps 753 mmHg 43%
    18:00 +27°C° 0 mm 5 mps 754 mmHg 49%
    19:00 +26°C° 0 mm 5 mps 754 mmHg 54%
    20:00 +26°C° 0 mm 5 mps 754 mmHg 56%
    21:00 +25°C° 0 mm 5 mps 754 mmHg 58%
    22:00 +25°C° 0 mm 5 mps 755 mmHg 60%
    23:00 +23°C° 0 mm 5 mps 754 mmHg 62%
    Show more